Weather History for PAHN - October, 2012

Change the Weather History Date:

Tuesday, October 9, 2012

  Actual Average Record
Temperature  
Mean Temperature 45 °F -  
Max Temperature 48 °F 46 °F 57 °F (1979)
Min Temperature 42 °F 38 °F 25 °F (1983)
Degree Days  
Heating Degree Days 20    
Moisture  
Dew Point 42 °F    
Average Humidity 91    
Maximum Humidity 100    
Minimum Humidity 80    
Precipitation  
Precipitation 0.00 in - - ()
Sea Level Pressure  
Sea Level Pressure 30.09 in    
Wind  
Wind Speed 5 mph (WNW)    
Max Wind Speed 9 mph    
Max Gust Speed -    
Visibility 10 miles    
Events      
Averages and records for this station are not official NWS values.
T = Trace of Precipitation, MM = Missing Value Source: NWS Daily Summary

Daily Weather History Graph

Daily Weather History Graph

Search for Another Location

Airport or City:

Trip Planner

Search our weather history database for the weather conditions in past years. The results will help you decide how hot, cold, wet, or windy it might be!

Date:

Astronomy

Oct. 09, 2012 Rise Set
Actual Time 7:27 AM AKDT 6:09 PM AKDT
Civil Twilight 6:46 AM AKDT 6:50 PM AKDT
Nautical Twilight 5:59 AM AKDT 7:37 PM AKDT
Astronomical Twilight 5:10 AM AKDT 8:25 PM AKDT
Moon No Moon Rise 3:54 PM AKDT (10/9)
Length of Visible Light 12h 04m
Length of Day
10h 42m
Waning Crescent, 35% of the Moon is Illuminated
Oct 9
Waning Crescent
Oct 15
New
Oct 21
First Quarter
Oct 29
Full
Nov 6
Last Quarter

Hourly Weather History & Observations

Time (AKDT) Temp. Windchill Dew Point Humidity Pressure Visibility Wind Dir Wind Speed Gust Speed Precip Events Conditions
12:54 AM 45.0 °F 41.2 °F 43.0 °F 93% 30.11 in 10.0 mi NW 6.9 mph - N/A   Overcast
1:54 AM 44.1 °F 40.8 °F 43.0 °F 96% 30.11 in 10.0 mi WNW 5.8 mph - N/A   Overcast
2:54 AM 44.1 °F 42.5 °F 42.1 °F 93% 30.10 in 10.0 mi NW 3.5 mph - N/A   Overcast
3:03 AM 44.6 °F - 42.8 °F 93% 30.09 in 10.0 mi Calm Calm - N/A   Overcast
3:54 AM 44.1 °F 42.5 °F 42.1 °F 93% 30.09 in 10.0 mi WNW 3.5 mph - N/A   Overcast
4:54 AM 44.1 °F 42.5 °F 41.0 °F 89% 30.09 in 10.0 mi NW 3.5 mph - N/A   Overcast
5:24 AM 42.8 °F 38.0 °F 41.0 °F 93% 30.08 in 7.0 mi NW 8.1 mph - N/A   Overcast
5:54 AM 43.0 °F 39.5 °F 41.0 °F 93% 30.09 in 9.0 mi NW 5.8 mph - N/A   Overcast
6:54 AM 43.0 °F 40.3 °F 41.0 °F 93% 30.09 in 10.0 mi NW 4.6 mph - N/A   Overcast
7:29 AM 42.8 °F 40.1 °F 39.2 °F 87% 30.08 in 10.0 mi WNW 4.6 mph - N/A   Overcast
7:54 AM 43.0 °F 40.3 °F 41.0 °F 93% 30.09 in 10.0 mi WNW 4.6 mph - N/A   Overcast
8:28 AM 42.8 °F 38.6 °F 41.0 °F 93% 30.08 in 10.0 mi WNW 6.9 mph - N/A   Overcast
8:54 AM 43.0 °F 40.3 °F 39.9 °F 89% 30.09 in 10.0 mi WNW 4.6 mph - N/A   Overcast
9:54 AM 43.0 °F 38.8 °F 41.0 °F 93% 30.10 in 10.0 mi WNW 6.9 mph - N/A   Overcast
10:54 AM 44.1 °F 40.1 °F 41.0 °F 89% 30.10 in 10.0 mi WNW 6.9 mph - N/A   Overcast
11:54 AM 45.0 °F 41.2 °F 42.1 °F 90% 30.09 in 10.0 mi West 6.9 mph - N/A   Overcast
12:30 PM 48.2 °F - 42.8 °F 82% 30.07 in 10.0 mi West 4.6 mph - N/A   Scattered Clouds
12:54 PM 48.0 °F - 42.1 °F 80% 30.07 in 10.0 mi SSE 6.9 mph - N/A   Clear
1:13 PM 46.4 °F 43.5 °F 42.8 °F 87% 30.07 in 10.0 mi SSE 5.8 mph - N/A   Mostly Cloudy
1:22 PM 48.2 °F - 42.8 °F 82% 30.07 in 10.0 mi SSE 5.8 mph - N/A   Mostly Cloudy
1:54 PM 46.9 °F - 42.1 °F 83% 30.07 in 10.0 mi SE 8.1 mph - N/A   Overcast
2:54 PM 46.0 °F 42.5 °F 42.1 °F 86% 30.06 in 10.0 mi SE 6.9 mph - N/A   Overcast
3:54 PM 46.0 °F 43.1 °F 42.1 °F 86% 30.07 in 10.0 mi ESE 5.8 mph - N/A   Overcast
4:54 PM 45.0 °F 42.6 °F 42.1 °F 90% 30.07 in 10.0 mi Variable 4.6 mph - N/A   Overcast
5:54 PM 45.0 °F - 42.1 °F 90% 30.07 in 10.0 mi Calm Calm - N/A   Overcast
6:54 PM 45.0 °F - 42.1 °F 90% 30.09 in 10.0 mi Calm Calm - N/A   Overcast
7:54 PM 44.1 °F - 42.1 °F 93% 30.09 in 10.0 mi Calm Calm - N/A   Overcast
8:54 PM 44.1 °F - 42.1 °F 93% 30.10 in 10.0 mi Calm Calm - N/A   Overcast
9:54 PM 43.0 °F - 42.1 °F 97% 30.11 in 10.0 mi Calm Calm - N/A   Overcast
10:45 PM 42.8 °F 39.3 °F 42.8 °F 100% 30.10 in 10.0 mi West 5.8 mph - N/A   Overcast
10:54 PM 43.0 °F 41.3 °F 42.1 °F 97% 30.12 in 10.0 mi WNW 3.5 mph - N/A   Overcast
11:50 PM 42.8 °F 41.1 °F 42.8 °F 100% 30.11 in 10.0 mi Variable 3.5 mph - N/A   Overcast
11:54 PM 43.0 °F 37.7 °F 42.1 °F 97% 30.12 in 10.0 mi WNW 9.2 mph - N/A   Overcast